Alexandria, MN

10:49 AM CDT on May 26, 2017 (GMT -0500)
Chandler

Weather History for KAXN - October, 2011

Change the Weather History Date:

Tuesday, October 4, 2011

  Actual Average Record
Temperature  
Mean Temperature 66 °F -  
Max Temperature 82 °F 61 °F 83 °F (1975)
Min Temperature 51 °F 39 °F 25 °F (1952)
Cooling Degree Days 2    
Growing Degree Days 16 (Base 50)    
Moisture  
Dew Point 43 °F    
Average Humidity 44    
Maximum Humidity 66    
Minimum Humidity 25    
Precipitation  
Precipitation 0.00 in - - ()
Sea Level Pressure  
Sea Level Pressure 30.06 in    
Wind  
Wind Speed 10 mph (SSE)    
Max Wind Speed 22 mph    
Max Gust Speed 29 mph    
Visibility 10 miles    
Events      
Averages and records for this station are not official NWS values.
T = Trace of Precipitation, MM = Missing Value Source: NWS Daily Summary

Daily Weather History Graph

Daily Weather History Graph

Search for Another Location

Airport or City:

Trip Planner

Search our weather history database for the weather conditions in past years. The results will help you decide how hot, cold, wet, or windy it might be!

Date:

Astronomy

Oct. 04, 2011 Rise Set
Actual Time 7:23 AM CDT 6:56 PM CDT
Civil Twilight 6:53 AM CDT 7:26 PM CDT
Nautical Twilight 6:19 AM CDT 8:00 PM CDT
Astronomical Twilight 5:44 AM CDT 8:35 PM CDT
Moon 3:18 PM CDT (10/4) No Moon Set
Length of Visible Light 12h 32m
Length of Day
11h 32m
First Quarter, 56% of the Moon is Illuminated
Oct 4
First Quarter
Oct 11
Full
Oct 19
Last Quarter
Oct 26
New
Nov 2
First Quarter

Hourly Weather History & Observations

Time (CDT) Temp. Dew Point Humidity Pressure Visibility Wind Dir Wind Speed Gust Speed Precip Events Conditions
12:53 AM 57.0 °F 37.9 °F 49% 30.12 in 10.0 mi SSE 5.8 mph - N/A   Clear
1:53 AM 55.9 °F 39.0 °F 53% 30.12 in 10.0 mi SSE 8.1 mph - N/A   Clear
2:53 AM 57.9 °F 39.9 °F 51% 30.12 in 10.0 mi South 10.4 mph - N/A   Clear
3:53 AM 57.9 °F 39.9 °F 51% 30.11 in 10.0 mi SSE 9.2 mph - N/A   Clear
4:53 AM 55.9 °F 39.9 °F 55% 30.11 in 10.0 mi SSE 8.1 mph - N/A   Clear
5:53 AM 53.6 °F 39.2 °F 58% 30.11 in 10.0 mi SE 4.6 mph - N/A   Clear
6:53 AM 52.0 °F 39.9 °F 63% 30.12 in 10.0 mi SE 6.9 mph - N/A   Clear
7:53 AM 51.1 °F 39.9 °F 66% 30.13 in 10.0 mi Variable 4.6 mph 23.0 mph N/A   Clear
8:53 AM 55.0 °F 39.9 °F 57% 30.13 in 10.0 mi North - - N/A   Clear
9:53 AM 63.0 °F 42.1 °F 46% 30.12 in 10.0 mi SSE 10.4 mph - N/A   Clear
10:53 AM 70.0 °F 43.0 °F 38% 30.11 in 10.0 mi SSE 11.5 mph - N/A   Clear
11:53 AM 75.0 °F 44.1 °F 33% 30.09 in 10.0 mi SSE 16.1 mph - N/A   Clear
12:53 PM 79.0 °F 43.0 °F 28% 30.06 in 10.0 mi SSE 19.6 mph 26.5 mph N/A   Clear
1:53 PM 80.1 °F 44.1 °F 28% 30.04 in 10.0 mi SSE 18.4 mph 23.0 mph N/A   Clear
2:53 PM 82.0 °F 43.0 °F 25% 30.01 in 10.0 mi SSE 21.9 mph 28.8 mph N/A   Clear
3:53 PM 81.0 °F 44.1 °F 27% 29.99 in 10.0 mi North - - N/A   Clear
4:53 PM 80.6 °F 44.6 °F 28% 30.00 in 10.0 mi SSE 17.3 mph - N/A   Clear
5:53 PM 80.1 °F 45.0 °F 29% 29.99 in 10.0 mi SSE 13.8 mph - N/A   Clear
6:53 PM 75.2 °F 44.6 °F 34% 29.99 in 10.0 mi SE 11.5 mph - N/A   Clear
7:53 PM 71.1 °F 45.0 °F 39% 30.00 in 10.0 mi SE 10.4 mph - N/A   Clear
8:53 PM 69.1 °F 46.0 °F 44% 30.00 in 10.0 mi SE 11.5 mph - N/A   Clear
9:53 PM 68.0 °F 45.0 °F 43% 29.99 in 10.0 mi SE 10.4 mph - N/A   Clear
10:53 PM 64.9 °F 46.0 °F 50% 29.99 in 10.0 mi SE 9.2 mph - N/A   Clear
11:53 PM 61.0 °F 46.0 °F 58% 29.99 in 10.0 mi SE 8.1 mph - N/A   Clear